Location: České Budějovice
(48.9747°N, 14.4743°E)
Time: 20:44:02
(UTC+01:00)

ISS - Pass Details

Date: 09 December 2021
Orbit: 413 x 422 km, 51.6° (Epoch: 20 January)

Event Time Altitude Azimuth Distance (km) Brightness Sun altitude
Rises 17:04:33 0° 286° (WNW) 2,387 0.9 -9.3°
Reaches altitude 10° 17:06:59 10° 270° (W) 1,516 0.3 -9.7°
Maximum altitude 17:09:37 21° 219° (SW) 1,010 -0.9 -10.1°
Drops below altitude 10° 17:12:14 10° 168° (SSE) 1,504 -0.8 -10.5°
Enters shadow 17:19:58 -15° 141° (SE) 4,453 1.3 -11.7°
